Weather History for Northeast Philadelphia, PA

Change the Weather History Date:

Sunday, December 16, 2012

  Actual Average Record
Temperature  
Mean Temperature 46 °F -  
Max Temperature 51 °F 43 °F 57 °F (1997)
Min Temperature 41 °F 28 °F 19 °F (2010)
Degree Days  
Heating Degree Days 19    
Moisture  
Dew Point 43 °F    
Average Humidity 89    
Maximum Humidity 100    
Minimum Humidity 76    
Precipitation  
Precipitation 0.08 in - - ()
Sea Level Pressure  
Sea Level Pressure 30.03 in    
Wind  
Wind Speed 4 mph (ENE)    
Max Wind Speed 9 mph    
Max Gust Speed -    
Visibility 7 miles    
Events Rain    
Averages and records for this station are not official NWS values.
T = Trace of Precipitation, MM = Missing Value Source: NWS Daily Summary

Daily Weather History Graph

Daily Weather History Graph

Search for Another Location

Airport:

Trip Planner

Search our weather history database for the weather conditions in past years. The results will help you decide how hot, cold, wet, or windy it might be!

Date:

Astronomy

Dec. 16, 2012 Rise Set
Actual Time 7:15 AM EST 4:35 PM EST
Civil Twilight 6:45 AM EST 5:06 PM EST
Nautical Twilight 6:11 AM EST 5:40 PM EST
Astronomical Twilight 5:38 AM EST 6:13 PM EST
Moon 9:47 AM EST (12/16) 8:47 PM EST (12/16)
Length of Visible Light 10h 21m
Length of Day
9h 19m
Waxing Crescent, 16% of the Moon is Illuminated
Dec 16
Waxing Crescent
Dec 20
First Quarter
Dec 28
Full
Jan 4
Last Quarter
Jan 11
New

Hourly Weather History & Observations

Time (EST) Temp. Windchill Dew Point Humidity Pressure Visibility Wind Dir Wind Speed Gust Speed Precip Events Conditions
12:54 AM 41.0 °F 39.0 °F 36.0 °F 82% 30.20 in 10.0 mi NNE 3.5 mph - N/A   Overcast
1:30 AM 41.0 °F 37.1 °F 35.6 °F 81% 30.18 in 10.0 mi ENE 5.8 mph - N/A   Overcast
1:54 AM 42.1 °F 38.4 °F 37.0 °F 82% 30.18 in 10.0 mi ENE 5.8 mph - N/A   Overcast
2:08 AM 42.8 °F 41.1 °F 37.4 °F 81% 30.18 in 10.0 mi East 3.5 mph - N/A   Overcast
2:28 AM 42.8 °F 41.1 °F 37.4 °F 81% 30.17 in 10.0 mi ENE 3.5 mph - N/A   Overcast
2:54 AM 44.1 °F 40.8 °F 37.0 °F 76% 30.15 in 10.0 mi ENE 5.8 mph - N/A   Overcast
3:54 AM 44.1 °F 40.8 °F 37.9 °F 79% 30.13 in 10.0 mi East 5.8 mph - N/A   Overcast
4:35 AM 42.8 °F 40.1 °F 39.2 °F 87% 30.12 in 10.0 mi ENE 4.6 mph - 0.00 in Rain Light Rain
4:54 AM 43.0 °F 38.8 °F 39.0 °F 86% 30.12 in 10.0 mi ENE 6.9 mph - 0.00 in   Overcast
5:54 AM 43.0 °F 41.3 °F 39.9 °F 89% 30.11 in 10.0 mi NE 3.5 mph - N/A   Overcast
6:54 AM 44.1 °F 41.5 °F 41.0 °F 89% 30.10 in 9.0 mi NE 4.6 mph - N/A   Overcast
7:54 AM 44.6 °F 43.1 °F 42.8 °F 93% 30.09 in 9.0 mi NE 3.5 mph - N/A   Overcast
8:06 AM 46.4 °F - 42.8 °F 87% 30.08 in 10.0 mi Calm Calm - N/A   Overcast
8:30 AM 46.4 °F - 42.8 °F 87% 30.08 in 9.0 mi Calm Calm - N/A   Overcast
8:54 AM 46.9 °F - 43.0 °F 86% 30.07 in 10.0 mi NE 4.6 mph - N/A   Overcast
9:54 AM 48.9 °F - 45.0 °F 86% 30.07 in 10.0 mi SE 5.8 mph - N/A   Overcast
10:49 AM 50.0 °F - 44.6 °F 82% 30.05 in 10.0 mi Calm Calm - N/A   Overcast
10:54 AM 50.0 °F - 46.0 °F 86% 30.05 in 10.0 mi SSE 3.5 mph - N/A   Overcast
11:52 AM 51.8 °F - 44.6 °F 76% 30.01 in 10.0 mi Calm Calm - N/A   Overcast
11:54 AM 51.1 °F - 44.1 °F 77% 30.01 in 10.0 mi Calm Calm - N/A   Overcast
12:29 PM 51.8 °F - 44.6 °F 76% 30.00 in 10.0 mi East 3.5 mph - N/A   Overcast
12:54 PM 51.1 °F - 45.0 °F 80% 29.99 in 10.0 mi SE 3.5 mph - N/A   Overcast
1:54 PM 50.0 °F - 46.0 °F 86% 29.98 in 6.0 mi East 3.5 mph - N/A   Overcast
2:28 PM 48.2 °F - 46.4 °F 93% 29.97 in 1.8 mi Calm Calm - 0.00 in Rain Light Rain
2:37 PM 48.2 °F - 48.2 °F 100% 29.96 in 1.2 mi East 4.6 mph - 0.01 in Rain Light Rain
2:54 PM 48.9 °F - 48.0 °F 97% 29.97 in 1.5 mi Calm Calm - 0.01 in   Overcast
3:08 PM 48.2 °F - 48.2 °F 100% 29.96 in 1.8 mi East 3.5 mph - N/A   Overcast
3:22 PM 48.2 °F - 48.2 °F 100% 29.95 in 2.0 mi East 6.9 mph - N/A   Overcast
3:54 PM 48.9 °F - 48.0 °F 97% 29.95 in 2.0 mi ENE 8.1 mph - N/A   Overcast
4:54 PM 48.9 °F - 48.0 °F 97% 29.94 in 2.0 mi ENE 4.6 mph - N/A   Overcast
5:54 PM 48.9 °F - 48.0 °F 97% 29.94 in 2.0 mi NE 8.1 mph - N/A   Overcast
6:54 PM 48.0 °F - 46.9 °F 96% 29.93 in 2.0 mi NE 8.1 mph - N/A   Overcast
7:54 PM 46.9 °F - 46.0 °F 97% 29.93 in 2.5 mi ENE 9.2 mph - 0.01 in   Overcast
8:01 PM 46.4 °F 41.9 °F 46.4 °F 100% 29.92 in 4.0 mi NE 9.2 mph - N/A   Overcast
8:54 PM 46.9 °F - 45.0 °F 93% 29.92 in 8.0 mi ENE 9.2 mph - 0.00 in Rain Light Rain
9:54 PM 46.0 °F 41.9 °F 45.0 °F 96% 29.92 in 5.0 mi NE 8.1 mph - 0.02 in Rain Light Rain
10:54 PM 46.0 °F 41.9 °F 44.1 °F 93% 29.92 in 6.0 mi NE 8.1 mph - 0.02 in Rain Light Rain
11:54 PM 45.0 °F 41.2 °F 44.1 °F 97% 29.90 in 9.0 mi East 6.9 mph - 0.02 in Rain Light Rain